Location: Gad�tanya
(48.0500°N, 20.8500°E)
Time: 11:55:34
(UTC+00:00)

Cosmos 1328 Rocket - Pass Details

Date: 05 July 2020
Orbit: 602 x 627 km, 82.5° (Epoch: 15 August)

Event Time Altitude Azimuth Distance (km) Brightness Sun altitude
Rises 22:42:57 0° 344° (NNW) 2,868 8.4 -19.3°
Reaches altitude 10° 22:45:15 10° 337° (NNW) 1,958 7.1 -19.3°
Maximum altitude 22:49:18 41° 268° (W) 884 4.3 -19.3°
Enters shadow 22:50:25 34° 231° (SW) 1,006 4.3 -19.3°
